Regional Weather Roundup
Issued by NWS

Home | Current Version | Previous Version | Graphics & Text | Print | Product List | Glossary On
Versions: 1 2 3 4 5 6 7 8 9 10 11 12 13 14 15 16 17 18 19 20 21 22 23 24 25 26 27 28 29 30 31 32 33 34 35 36 37 38 39 40 41 42 43 44 45 46 47 48 49 50
000
ASUS43 KMKX 311800
RWRWI

WISCONSIN REGIONAL WEATHER ROUNDUP
NATIONAL WEATHER SERVICE MILWAUKEE/SULLIVAN WI
100 PM CDT TUE MAY 31 2016

NOTE: "FAIR" INDICATES FEW OR NO CLOUDS BELOW 12,000 FEET WITH NO
SIGNIFICANT WEATHER AND/OR OBSTRUCTIONS TO VISIBILITY.

WIZ001-002-006>008-014>016-023>028-311900-
NORTHWEST WISCONSIN

CITY           SKY/WX    TMP DP  RH WIND       PRES   REMARKS
SUPERIOR ARPT  CLOUDY    41  40  97 E16G25    29.95S
ASHLAND        CLOUDY    52  48  86 N12       29.93F
6HR MIN TEMP:  49; 6HR MAX TEMP:  54; 6HR PCP:  0.01;

HAYWARD        LGT RAIN  67  59  75 S9G20     29.90F
6HR MIN TEMP:  59; 6HR MAX TEMP:  68; 6HR PCP:  0.06;

SIREN          CLOUDY    67  59  73 S13G18    29.89R
CUMBERLAND     LGT RAIN  64  61  88 SE5       29.90F
RICE LAKE      CLOUDY    67  62  81 CALM      29.91F
CHETEK         DRIZZLE   69  63  80 CALM      29.90F
LADYSMITH      PTSUNNY   74  60  59 S15       29.93F
EAU CLAIRE     NOT AVBL
MENOMONIE      CLOUDY    72  71  95 S8        29.89S
NEW RICHMOND   CLOUDY    69  61  74 S9G17     29.90S
OSCEOLA        CLOUDY    69  61  76 S14       29.91F
$$

WIZ003>005-009-010-017-018-311900-
NORTH CENTRAL WISCONSIN

CITY           SKY/WX    TMP DP  RH WIND       PRES   REMARKS
MANITOWISH WTR NOT AVBL
ARBOR VITAE    MOSUNNY   70  55  59 SE10      29.99F
WOODRUFF       MOSUNNY   70  55  59 SE10      29.99F
RHINELANDER    SUNNY     70  52  52 SE13G25   30.00F
6HR MIN TEMP:  51; 6HR MAX TEMP:  71; 6HR PCP: TRACE;

EAGLE RIVER      N/A     66  48  52 SE9       30.01F
LAND O LAKES   CLOUDY    65  48  53 SE13      30.03F
PHILLIPS       CLOUDY    69  56  63 SE10      29.96F
TOMAHAWK       SUNNY     69  55  59 SE7       30.00S
MEDFORD        MOSUNNY   70  58  66 SE13G21   29.96F
MERRILL        SUNNY     70  55  58 S12G17    29.99F
$$

WIZ029-030-035-036-043>047-311900-
CENTRAL WISCONSIN

CITY           SKY/WX    TMP DP  RH WIND       PRES   REMARKS
WAUSAU         SUNNY     73  55  53 SE16G23   29.97F
6HR MIN TEMP:  57; 6HR MAX TEMP:  74;

MOSINEE        SUNNY     72  55  56 SE12G18   30.00S
MARSHFIELD     PTSUNNY   75  59  57 SE16      29.96R
6HR MIN TEMP:  62; 6HR MAX TEMP:  77;

STEVENS POINT  SUNNY     71  56  58 SE12G17   29.99S
WAUPACA        MOSUNNY   75  57  53 E12       30.01S
WAUTOMA        MOSUNNY  N/A N/A N/A E7        29.99R
WISC RAPIDS    PTSUNNY   73  58  59 SE13      29.98R
6HR MIN TEMP:  61; 6HR MAX TEMP:  79; 6HR PCP: TRACE;

CAMP DOUGLAS   NOT AVBL
$$

WIZ011>013-019>022-031-037>040-048>050-311900-
NORTHEAST WISCONSIN

CITY           SKY/WX    TMP DP  RH WIND       PRES   REMARKS
ANTIGO         SUNNY     67  55  64 SE10G20   30.02F
SHAWANO        SUNNY     69  53  57 E9        30.04S
OCONTO         SUNNY     61  47  62 E10G16    30.06F
STURGEON BAY   SUNNY     63  48  59 E9        30.07
6HR MIN TEMP: -78; 6HR MAX TEMP:  63;

GREEN BAY      SUNNY     68  55  63 NE13      30.03F
6HR MIN TEMP:  57; 6HR MAX TEMP:  68;

MANITOWOC      NOT AVBL
APPLETON       MOSUNNY   72  54  53 E9G16     30.01S
CLINTONVILLE   SUNNY     70  54  56 E10G16    30.02S
OSHKOSH        MOSUNNY   73  57  57 E13       30.00S
6HR MIN TEMP:  60; 6HR MAX TEMP:  73; 6HR PCP: TRACE;

$$

WIZ032>034-041-042-053>061-311900-
SOUTHWEST WISCONSIN

CITY           SKY/WX    TMP DP  RH WIND       PRES   REMARKS
LA CROSSE      CLOUDY    82  62  50 S16G23    29.90F HX  83
6HR MIN TEMP:  65; 6HR MAX TEMP:  82;

SPARTA         CLOUDY    79  62  57 S12       29.94R HX  80
VIROQUA        CLOUDY    76  62  62 S10       29.95F
BOSCOBEL       NOT AVBL
PRAIRIE DU CHI CLOUDY    79  60  51 SE5       29.92S HX  80
PLATTEVILLE    MOSUNNY   67  64  88 E13       29.97S
$$

WIZ056-057-062-063-064-067-068-311900-
SOUTH CENTRAL WISCONSIN

CITY           SKY/WX    TMP DP  RH WIND       PRES   REMARKS
REEDSBURG      LGT RAIN  65  62  91 S8        29.99R
BARABOO/DELLS  LGT RAIN  70  57  63 W14G30    30.01R
LONE ROCK      LGT RAIN  66  63  90 SE3       29.98S
MINERAL POINT  LGT RAIN  64  63  94 E9        29.98F
MADISON        LGT RAIN  67  62  84 SW6       30.01R
6HR MIN TEMP:  66; 6HR MAX TEMP:  78; 6HR PCP:  0.02;

MIDDLETON      CLOUDY    68  62  80 SW5       30.02R
WATERTOWN      MOSUNNY   74  53  46 S10       30.00R
MONROE         LGT RAIN  63  61  94 S12       30.05R
JANESVILLE     LGT RAIN  66  61  82 S12       30.04R
$$

WIZ051-052-058>065-066-070>072-311900-
SOUTHEAST WISCONSIN

CITY           SKY/WX    TMP DP  RH WIND       PRES   REMARKS
MILWAUKEE      CLOUDY    66  54  65 E10       30.01F
6HR MIN TEMP:  61; 6HR MAX TEMP:  70;

WAUKESHA       MOSUNNY   73  52  46 E12G23    30.01F
MILWAUKEE/TIMM PTSUNNY   70  48  46 E8        30.02F
RACINE         MOSUNNY   71  53  52 E9        30.03F
6HR MIN TEMP:  65; 6HR MAX TEMP:  72;

BURLINGTON     MOSUNNY   78  49  35 SE12G20   29.99F
KENOSHA        MOSUNNY   74  56  53 E12       30.01F
6HR MIN TEMP:  66; 6HR MAX TEMP:  74;

FOND DU LAC    SUNNY     76  57  51 S9        30.01R
6HR MIN TEMP:  63; 6HR MAX TEMP:  77; 6HR PCP: TRACE;

SHEBOYGAN      SUNNY     64  54  69 E9        30.03F
6HR MIN TEMP:  54; 6HR MAX TEMP:  65; 6HR PCP: TRACE;

WEST BEND      CLOUDY    72  52  49 SE10      30.01F
JUNEAU         MOSUNNY   75  55  49 SE17      30.00S
$$

LSZ147-162-311900-
LAKE SUPERIOR

STATION/POSITION TIME  TEMP    WIND        PRES    WAVE
                       AIR SEA DIR/SP/G            HT/PER
                 (UTC) (F)     (DEG/KT/KT) (MB)    (FT/S)
W MID LAKE BUOY  1650   41 38   70/ 19/ 21 1017.1F   4/ 5
DEVILS ISLAND    1700   43      70/ 21/ 24 1015.9F
SAXON HARBOR     1720   56      60/  3/ 16 1013.5F
$$

LMZ867-665-643>646-311900-
LAKE MICHIGAN

STATION/POSITION TIME  TEMP    WIND        PRES    WAVE
                       AIR SEA DIR/SP/G            HT/PER
                 (UTC) (F)     (DEG/KT/KT) (MB)    (FT/S)
CHAMBERS ISLAND  1700   54      10/ 13/ 14 1019.0F
N MID LAKE BUOY  1650   48 47   30/  8/  8 1019.1F   1/ 4
NORTHPORT PIER   1700   53      70/ 10/ 13 1019.0F
SISTER BAY       1705   60      70/  7/ 11   N/A
ALGOMA LAKESHORE 1717           70/ 14/ 19   N/A
KEWAUNEE LAKESHO 1700   50      30/ 10/ 13 1017.6R
SHEBOYGAN LAKESH 1700   49     350/ 13/ 14 1017.9F
PORT WASHINGTON  1740   54      40/  7/  9 1017.6F
S MID LAKE BUOY  1650   57 54   70/  8/  8 1015.9F   0
KENOSHA   LAKESH 1700   57      10/  6/  6 1016.6R
$$

TC  - TEMPERATURE IN CELSIUS
VSB - VISIBILITY IN STATUTE MILES
WCI - WIND CHILL INDEX
HX  - HEAT INDEX





USA.gov is the U.S. government's official web portal to all federal, state and local government web resources and services.